�������l�o���
Date,Time,MP-1(��Sv/h),MP-2(��Sv/h),MP-3(��Sv/h),MP-4(��Sv/h),MP-5(��Sv/h),MP-6(��Sv/h),MP-7(��Sv/h),MP-8(��Sv/h),����,����(m/s),���J
2019/05/05,00:00,0.761,1.114,0.766,1.403,1.031,0.439,0.769,0.727,�k��,2.3,��
2019/05/05,00:10,0.760,1.113,0.766,1.407,1.031,0.438,0.769,0.727,�k,2.6,��
2019/05/05,00:20,0.760,1.115,0.765,1.405,1.032,0.438,0.770,0.724,-,CALM,��
2019/05/05,00:30,0.760,1.114,0.765,1.405,1.032,0.439,0.770,0.728,��쐼,0.9,��
2019/05/05,00:40,0.759,1.112,0.765,1.405,1.031,0.439,0.768,0.727,���쐼,1.2,��
2019/05/05,00:50,0.760,1.112,0.765,1.403,1.032,0.439,0.768,0.727,��,1.9,��
2019/05/05,01:00,0.761,1.115,0.765,1.407,1.032,0.437,0.768,0.729,�k��,2.0,��
2019/05/05,01:10,0.760,1.115,0.766,1.403,1.033,0.440,0.768,0.727,�k��,1.5,��
2019/05/05,01:20,0.759,1.112,0.766,1.404,1.033,0.438,0.770,0.728,-,CALM,��
2019/05/05,01:30,0.761,1.114,0.766,1.405,1.030,0.438,0.768,0.727,��쓌,1.5,��
2019/05/05,01:40,0.761,1.113,0.763,1.405,1.031,0.437,0.769,0.727,��쓌,0.9,��
2019/05/05,01:50,0.759,1.114,0.765,1.406,1.031,0.438,0.768,0.727,���쓌,0.8,��
2019/05/05,02:00,0.761,1.113,0.765,1.404,1.030,0.438,0.769,0.727,��쓌,1.2,��
2019/05/05,02:10,0.760,1.113,0.765,1.404,1.031,0.438,0.767,0.728,��,1.1,��
2019/05/05,02:20,0.760,1.113,0.763,1.406,1.032,0.438,0.768,0.727,��쐼,1.1,��
2019/05/05,02:30,0.760,1.114,0.763,1.403,1.028,0.439,0.768,0.728,��쐼,1.7,��
2019/05/05,02:40,0.761,1.112,0.765,1.405,1.033,0.438,0.769,0.728,��쐼,1.7,��
2019/05/05,02:50,0.760,1.113,0.764,1.404,1.030,0.436,0.768,0.728,��,1.2,��
2019/05/05,03:00,0.759,1.112,0.765,1.405,1.032,0.439,0.769,0.729,�k��,1.9,��
2019/05/05,03:10,0.760,1.113,0.766,1.403,1.031,0.437,0.768,0.726,�k�k��,2.5,��
2019/05/05,03:20,0.760,1.113,0.766,1.406,1.030,0.438,0.768,0.727,�k�k��,3.1,��
2019/05/05,03:30,0.760,1.112,0.764,1.405,1.030,0.439,0.768,0.726,�k�k��,5.3,��
2019/05/05,03:40,0.757,1.114,0.765,1.404,1.033,0.435,0.769,0.727,�k�k��,5.1,��
2019/05/05,03:50,0.759,1.115,0.765,1.404,1.031,0.438,0.768,0.727,�k�k��,4.8,��
2019/05/05,04:00,0.759,1.115,0.765,1.403,1.031,0.438,0.769,0.728,�k�k��,4.7,��
2019/05/05,04:10,0.759,1.114,0.764,1.405,1.030,0.436,0.770,0.728,�k�k��,3.9,��
2019/05/05,04:20,0.757,1.112,0.764,1.405,1.030,0.437,0.768,0.726,�k�k��,4.2,��
2019/05/05,04:30,0.760,1.112,0.764,1.405,1.030,0.438,0.768,0.726,�k�k��,4.6,��
2019/05/05,04:40,0.757,1.112,0.766,1.407,1.030,0.438,0.769,0.727,�k�k��,3.6,��
2019/05/05,04:50,0.760,1.113,0.764,1.406,1.031,0.438,0.768,0.727,�k,2.9,��
2019/05/05,05:00,0.758,1.111,0.766,1.404,1.030,0.437,0.767,0.726,�k,1.1,��
2019/05/05,05:10,0.759,1.114,0.764,1.405,1.032,0.438,0.768,0.727,-,CALM,��
2019/05/05,05:20,0.758,1.112,0.766,1.403,1.031,0.438,0.766,0.726,�k�k��,1.5,��
2019/05/05,05:30,0.760,1.112,0.765,1.402,1.032,0.437,0.768,0.725,�k��,1.2,��
2019/05/05,05:40,0.759,1.111,0.766,1.407,1.030,0.437,0.770,0.727,��,0.9,��
2019/05/05,05:50,0.759,1.112,0.765,1.404,1.030,0.437,0.769,0.728,��,1.1,��
2019/05/05,06:00,0.761,1.113,0.764,1.406,1.030,0.438,0.768,0.729,�쓌,1.2,��
2019/05/05,06:10,0.759,1.115,0.764,1.402,1.029,0.437,0.771,0.729,��쓌,1.2,��
2019/05/05,06:20,0.758,1.113,0.764,1.406,1.029,0.439,0.770,0.726,��쓌,1.7,��
2019/05/05,06:30,0.761,1.112,0.766,1.406,1.030,0.439,0.769,0.727,�쓌,1.5,��
2019/05/05,06:40,0.759,1.114,0.764,1.405,1.031,0.439,0.769,0.729,���쓌,1.2,��
2019/05/05,06:50,0.761,1.113,0.766,1.406,1.028,0.438,0.770,0.728,���쓌,1.2,��
2019/05/05,07:00,0.760,1.114,0.768,1.405,1.032,0.437,0.769,0.728,�쓌,1.4,��
2019/05/05,07:10,0.759,1.115,0.768,1.404,1.028,0.436,0.769,0.728,��,1.5,��
2019/05/05,07:20,0.760,1.112,0.764,1.403,1.031,0.435,0.770,0.727,��,1.2,��
2019/05/05,07:30,0.760,1.112,0.765,1.405,1.031,0.437,0.769,0.729,���k��,1.9,��
2019/05/05,07:40,0.757,1.112,0.765,1.407,1.031,0.436,0.771,0.727,��,1.5,��
2019/05/05,07:50,0.761,1.112,0.766,1.406,1.031,0.434,0.770,0.729,���쓌,2.0,��
2019/05/05,08:00,0.759,1.111,0.766,1.406,1.032,0.436,0.769,0.729,���쓌,2.2,��
2019/05/05,08:10,0.761,1.112,0.765,1.407,1.031,0.436,0.769,0.728,��,2.5,��
2019/05/05,08:20,0.761,1.113,0.765,1.407,1.032,0.437,0.768,0.726,�쓌,2.2,��
2019/05/05,08:30,0.761,1.113,0.766,1.406,1.031,0.436,0.770,0.725,���쓌,2.8,��
2019/05/05,08:40,0.760,1.111,0.764,1.407,1.030,0.435,0.770,0.725,��,2.5,��
2019/05/05,08:50,0.759,1.115,0.766,1.405,1.034,0.437,0.768,0.725,���쓌,2.8,��
2019/05/05,09:00,0.761,1.115,0.765,1.408,1.031,0.437,0.766,0.726,��,3.4,��
2019/05/05,09:10,0.759,1.115,0.762,1.408,1.033,0.437,0.768,0.725,��,3.7,��
2019/05/05,09:20,0.760,1.116,0.764,1.406,1.032,0.436,0.767,0.727,��,3.7,��
2019/05/05,09:30,0.761,1.116,0.763,1.407,1.031,0.436,0.767,0.727,���쓌,4.1,��
2019/05/05,09:40,0.759,1.117,0.767,1.408,1.032,0.437,0.767,0.725,���쓌,4.7,��
2019/05/05,09:50,0.760,1.117,0.765,1.406,1.035,0.435,0.767,0.725,���쓌,5.1,��
2019/05/05,10:00,0.760,1.116,0.764,1.407,1.032,0.436,0.768,0.725,�쓌,4.4,��
2019/05/05,10:10,0.759,1.118,0.765,1.409,1.033,0.436,0.767,0.727,�쓌,4.6,��
2019/05/05,10:20,0.760,1.118,0.765,1.410,1.034,0.435,0.767,0.727,�쓌,4.5,��
2019/05/05,10:30,0.761,1.116,0.765,1.410,1.033,0.436,0.769,0.727,�쓌,3.8,��
2019/05/05,10:40,0.761,1.118,0.764,1.409,1.034,0.437,0.768,0.728,��쓌,5.0,��
2019/05/05,10:50,0.760,1.120,0.767,1.409,1.031,0.437,0.768,0.726,��쓌,4.5,��
2019/05/05,11:00,0.760,1.119,0.763,1.411,1.034,0.436,0.768,0.727,�쓌,5.4,��
2019/05/05,11:10,0.764,1.119,0.766,1.409,1.034,0.436,0.770,0.726,��쓌,5.8,��
2019/05/05,11:20,0.762,1.118,0.767,1.405,1.034,0.437,0.769,0.727,��쓌,5.4,��
2019/05/05,11:30,0.762,1.121,0.766,1.404,1.036,0.437,0.767,0.727,��쓌,5.9,��
2019/05/05,11:40,0.762,1.120,0.767,1.407,1.036,0.438,0.770,0.725,��쓌,5.5,��
2019/05/05,11:50,0.763,1.118,0.767,1.407,1.036,0.438,0.769,0.728,��쓌,6.9,��
2019/05/05,12:00,0.763,1.119,0.765,1.407,1.038,0.439,0.771,0.728,��쓌,7.4,��
2019/05/05,12:10,0.764,1.120,0.764,1.408,1.037,0.437,0.771,0.726,��쓌,7.3,��
2019/05/05,12:20,0.761,1.124,0.767,1.408,1.036,0.436,0.771,0.727,��쓌,9.1,��
2019/05/05,12:30,0.763,1.124,0.767,1.406,1.037,0.438,0.770,0.727,��쓌,8.7,��
2019/05/05,12:40,0.764,1.120,0.769,1.409,1.038,0.438,0.770,0.727,��쓌,10.9,��
2019/05/05,12:50,0.764,1.122,0.768,1.407,1.038,0.437,0.769,0.727,��쓌,10.8,��
2019/05/05,13:00,0.764,1.121,0.769,1.410,1.038,0.436,0.770,0.728,��쓌,13.0,��
2019/05/05,13:10,0.763,1.122,0.768,1.412,1.038,0.439,0.771,0.725,��쓌,13.5,��
2019/05/05,13:20,0.761,1.119,0.768,1.411,1.040,0.440,0.771,0.726,��쓌,15.5,��
2019/05/05,13:30,0.763,1.122,0.766,1.411,1.039,0.439,0.772,0.728,��쓌,15.5,��
2019/05/05,13:40,0.763,1.123,0.769,1.410,1.038,0.437,0.769,0.727,��쓌,14.4,��
2019/05/05,13:50,0.764,1.121,0.769,1.412,1.039,0.439,0.769,0.727,��쓌,14.2,��
2019/05/05,14:00,0.764,1.122,0.768,1.410,1.039,0.440,0.771,0.728,��쓌,15.0,��
2019/05/05,14:10,0.764,1.122,0.768,1.410,1.040,0.440,0.769,0.725,��쓌,16.3,�L
2019/05/05,14:20,0.764,1.124,0.768,1.405,1.039,0.441,0.771,0.728,��쓌,14.9,��
2019/05/05,14:30,0.765,1.122,0.770,1.410,1.038,0.441,0.769,0.726,��쓌,15.7,��
2019/05/05,14:40,0.764,1.123,0.767,1.407,1.038,0.441,0.771,0.727,��쓌,13.5,��
2019/05/05,14:50,0.764,1.122,0.767,1.410,1.040,0.440,0.770,0.727,��쓌,13.1,��
2019/05/05,15:00,0.762,1.123,0.768,1.410,1.041,0.441,0.770,0.727,��쓌,13.8,��
2019/05/05,15:10,0.763,1.121,0.768,1.410,1.041,0.440,0.770,0.727,��쓌,15.2,��
2019/05/05,15:20,0.765,1.120,0.769,1.407,1.039,0.441,0.770,0.728,��쓌,14.9,��
2019/05/05,15:30,0.764,1.122,0.767,1.409,1.040,0.441,0.771,0.727,��쓌,14.7,��
2019/05/05,15:40,0.764,1.121,0.768,1.408,1.043,0.441,0.772,0.727,��쓌,13.0,��
2019/05/05,15:50,0.763,1.125,0.769,1.410,1.042,0.441,0.771,0.727,��,14.4,��
2019/05/05,16:00,0.764,1.121,0.768,1.409,1.042,0.441,0.770,0.728,��,13.8,��
2019/05/05,16:10,0.764,1.121,0.769,1.412,1.040,0.441,0.773,0.726,��쓌,13.9,��
2019/05/05,16:20,0.764,1.118,0.770,1.411,1.042,0.440,0.772,0.727,��,11.8,��
2019/05/05,16:30,0.763,1.121,0.769,1.409,1.040,0.438,0.770,0.726,��,13.5,��
2019/05/05,16:40,0.763,1.121,0.768,1.409,1.040,0.441,0.772,0.728,��,13.0,��
2019/05/05,16:50,0.764,1.123,0.769,1.409,1.040,0.441,0.772,0.727,��,12.1,��
2019/05/05,17:00,0.763,1.120,0.770,1.408,1.040,0.442,0.770,0.727,��,11.7,��
2019/05/05,17:10,0.763,1.122,0.770,1.408,1.041,0.441,0.769,0.727,��,10.2,��
2019/05/05,17:20,0.762,1.121,0.769,1.410,1.039,0.441,0.769,0.729,��,11.6,��
2019/05/05,17:30,0.763,1.123,0.769,1.409,1.042,0.439,0.772,0.728,��,11.3,��
2019/05/05,17:40,0.764,1.123,0.769,1.413,1.039,0.441,0.769,0.728,��,10.2,��
2019/05/05,17:50,0.766,1.122,0.768,1.410,1.042,0.440,0.769,0.727,��,9.9,��
2019/05/05,18:00,0.762,1.123,0.767,1.409,1.039,0.442,0.770,0.728,��,8.9,��
2019/05/05,18:10,0.764,1.118,0.770,1.412,1.039,0.441,0.769,0.730,��,9.3,��
2019/05/05,18:20,0.763,1.123,0.770,1.412,1.039,0.440,0.769,0.730,��,9.2,��
2019/05/05,18:30,0.765,1.121,0.768,1.411,1.039,0.441,0.770,0.729,��,8.9,��
2019/05/05,18:40,0.764,1.119,0.771,1.409,1.041,0.440,0.770,0.732,��,7.8,��
2019/05/05,18:50,0.764,1.122,0.769,1.412,1.039,0.443,0.770,0.731,��,9.9,��
2019/05/05,19:00,0.764,1.124,0.768,1.412,1.040,0.441,0.769,0.731,��,8.5,��
2019/05/05,19:10,0.765,1.121,0.771,1.412,1.040,0.444,0.772,0.730,��,8.9,��
2019/05/05,19:20,0.762,1.123,0.770,1.412,1.039,0.443,0.771,0.729,��,9.7,��
2019/05/05,19:30,0.762,1.125,0.771,1.415,1.040,0.441,0.772,0.730,��,8.8,��
2019/05/05,19:40,0.764,1.124,0.771,1.413,1.041,0.444,0.772,0.729,��,7.8,��
2019/05/05,19:50,0.765,1.124,0.771,1.412,1.041,0.442,0.773,0.731,��,10.2,��
2019/05/05,20:00,0.763,1.125,0.773,1.413,1.041,0.442,0.773,0.730,��,9.4,��
2019/05/05,20:10,0.767,1.123,0.771,1.413,1.043,0.442,0.770,0.729,��,8.0,��
2019/05/05,20:20,0.765,1.125,0.770,1.415,1.042,0.441,0.772,0.728,��,8.1,��
2019/05/05,20:30,0.765,1.123,0.770,1.414,1.043,0.442,0.772,0.730,��쐼,7.4,��
2019/05/05,20:40,0.766,1.125,0.770,1.411,1.041,0.441,0.772,0.729,��,7.8,��
2019/05/05,20:50,0.766,1.124,0.769,1.414,1.041,0.444,0.774,0.730,��쐼,8.3,��
2019/05/05,21:00,0.765,1.122,0.771,1.411,1.042,0.440,0.773,0.730,��쐼,9.3,��
2019/05/05,21:10,0.766,1.125,0.770,1.413,1.042,0.443,0.772,0.730,��,8.4,��
2019/05/05,21:20,0.766,1.123,0.771,1.415,1.041,0.442,0.772,0.729,��,9.2,��
2019/05/05,21:30,0.764,1.123,0.770,1.412,1.042,0.442,0.773,0.729,��,8.9,��
2019/05/05,21:40,0.766,1.124,0.772,1.415,1.041,0.442,0.773,0.729,��,8.8,��
2019/05/05,21:50,0.765,1.125,0.772,1.413,1.044,0.442,0.777,0.731,��,8.0,��
2019/05/05,22:00,0.765,1.122,0.771,1.414,1.044,0.442,0.773,0.731,��,9.5,��
2019/05/05,22:10,0.763,1.123,0.770,1.412,1.041,0.442,0.772,0.729,�쓌,8.7,��
2019/05/05,22:20,0.764,1.123,0.770,1.414,1.043,0.441,0.772,0.728,��,9.7,��
2019/05/05,22:30,0.763,1.122,0.772,1.412,1.041,0.440,0.772,0.731,��,9.8,��
2019/05/05,22:40,0.765,1.123,0.771,1.411,1.043,0.443,0.773,0.729,��,9.3,��
2019/05/05,22:50,0.765,1.122,0.771,1.413,1.041,0.442,0.773,0.730,��,9.6,��
2019/05/05,23:00,0.763,1.123,0.772,1.414,1.042,0.443,0.772,0.730,��,9.3,��
2019/05/05,23:10,0.766,1.125,0.770,1.415,1.042,0.444,0.771,0.729,��,10.3,��
2019/05/05,23:20,0.764,1.123,0.772,1.416,1.042,0.442,0.771,0.729,��,10.0,��
2019/05/05,23:30,0.764,1.122,0.770,1.415,1.042,0.441,0.772,0.730,��,9.1,��
2019/05/05,23:40,0.764,1.124,0.771,1.414,1.042,0.441,0.772,0.727,��,11.1,��
2019/05/05,23:50,0.767,1.121,0.771,1.415,1.041,0.443,0.773,0.729,��,9.5,��
